Regional Weather Roundup
Issued by NWS

Home | Current Version | Previous Version | Text Only | Print | Product List | Glossary On
Versions: 1 2 3 4 5 6 7 8 9 10 11 12 13 14 15 16 17 18 19 20 21 22 23 24 25 26 27 28 29 30 31 32 33 34 35 36 37 38 39 40 41 42 43 44 45 46 47 48 49 50
000
ASUS43 KFSD 061210
RWRSD

WEATHER ROUNDUP FOR SOUTH DAKOTA
NATIONAL WEATHER SERVICE SIOUX FALLS SD
700 AM CDT WED MAY 06 2015

NOTE: "FAIR" INDICATES FEW OR NO CLOUDS BELOW 12,000 FEET WITH NO
SIGNIFICANT WEATHER AND/OR OBSTRUCTIONS TO VISIBILITY.


SDZ001>005-009-010-012>017-061300-
NORTHWEST AND NORTH CENTRAL SOUTH DAKOTA

CITY           SKY/WX    TMP DP  RH WIND       PRES   REMARKS
BUFFALO          N/A     54  52  93 SE10      29.67R
FAITH            N/A     56  53  90 SE13      29.74F
MOBRIDGE       LGT RAIN  60  58  92 E15       29.76F FOG
$$

SDZ012>016-024>037-041>051-057-063-072>074-061300-
SOUTHWEST AND SOUTH CENTRAL SOUTH DAKOTA

CITY           SKY/WX    TMP DP  RH WIND       PRES   REMARKS
RAPID CTY ARPT LGT RAIN  53  53 100 SE10      29.72F FOG
PIERRE         CLOUDY    59  56  89 SE18      29.75F
CUSTER         LGT RAIN  47  46  97 E3        29.75F FOG
ELLSWORTH AFB  LGT RAIN  53  53 100 SE8       29.71  FOG
PHILIP         LGT RAIN  56  55  97 E9        29.72F FOG
PINE RIDGE     CLOUDY    54  52  93 NE3       29.70F
SPEARFISH      LGT RAIN  50  50 100 SE3       29.73S
WINNER         CLOUDY    61  56  83 SE16      29.76F
$$

SDZ004>011-016>023-039-040-061300-
NORTHEAST SOUTH DAKOTA

CITY           SKY/WX    TMP DP  RH WIND       PRES   REMARKS
ABERDEEN       LGT RAIN  60  57  89 SE13      29.85F FOG
WATERTOWN      LGT RAIN  59  57  93 SE9       29.91S FOG
BROOKINGS      CLOUDY    61  59  94 SE17      29.92S
SISSETON         N/A     56  56 100 S15       29.92S
$$

SDZ017-020-022-023-036>040-048>070-061300-
SOUTHEAST SOUTH DAKOTA

CITY           SKY/WX    TMP DP  RH WIND       PRES   REMARKS
SIOUX FALLS    LGT RAIN  63  59  87 SE15      29.90S
HURON          CLOUDY    62  59  90 SE13      29.83F
CHAMBERLAIN    CLOUDY    59  58  96 SE13      29.79F FOG
MITCHELL       CLOUDY    63  59  87 SE14      29.85S
YANKTON        CLOUDY    63  57  82 E9        29.85S
$$

ABBREVIATIONS USED IN REMARKS
   TC - TEMPERATURE IN CELSIUS
  WCI - WIND CHILL INDEX
   HX - HEAT INDEX
  VSB - VISIBILITY




USA.gov is the U.S. government's official web portal to all federal, state and local government web resources and services.